CAPE
414 343 1017 793 524 378 378 213 683 257 474 134 126 452 536 768 689 857 760 634 684 852 658 496 542 547 850 1112 761 701 544 531 13 10 15 14 11 6 5 2 2 3 0
260 377 797 495 554 560 394 136 307 467 191 74 120 82 225 533 694 489 331 354 531 531 588 463 264 439 596 983 823 562 463 129 3 5 12 15 23 28 4 32 47 24 7
250 291 520 349 612 631 361 572 40 77 45 64 89 65 416 412 503 436 251 203 454 316 96 73 282 201 582 591 331 214 107 26 5 4 11 39 32 10 27 35 23 26 56
171 217 788 815 577 680 625 372 27 19 17 62 99 432 238 360 303 237 579 483 294 158 65 64 87 179 361 330 174 99 24 9 18 43 62 56 50 13 2 2 5 18 17
133 217 935 662 544 178 393 89 29 23 44 253 441 130 345 407 173 350 501 541 554 467 303 115 105 37 223 342 99 70 33 8 42 34 42 28 6 7 4 3 8 13 23
106 296 460 297 167 216 160 182 116 208 282 534 458 435 384 18 0 0 0 617 508 349 187 18 95 3 0 0 42 30 67 72 28 15 18 18 12 2 0 0 0 0 0
164 403 310 175 132 163 188 209 328 860 925 704 798 477 588 0 0 0 0 550 740 449 339 182 148 116 97 2 0 0 0 0 0 1 2 1 0 0 0 4 35 35 38
197 365 252 163 131 178 266 297 430 1171 809 792 663 626 691 0 0 1 0 580 746 369 290 205 255 301 65 72 82 29 7 0 0 0 0 1 0 0 40 155 139 350 239
233 341 220 294 398 388 704 436 636 1073 1061 1008 912 617 375 0 1 1 0 610 552 372 220 364 310 190 1 0 39 6 1 0 0 0 5 8 8 0 94 144 35 295 139
216 319 305 419 484 497 636 809 858 774 560 850 721 659 225 60 1 0 0 515 645 717 427 16 7 7 0 18 130 4 3 1 0 4 12 5 4 33 3 303 402 283 401
139 341 355 446 489 683 515 616 683 590 577 914 762 720 399 235 2 1 0 194 617 421 133 164 11 0 0 0 46 171 48 43 13 75 92 113 241 334 60 258 421 102 299
23 312 509 513 452 711 636 335 196 449 763 1086 850 493 261 176 0 0 0 17 16 172 103 90 0 0 0 0 33 13 4 59 176 190 314 398 246 0 22 401 752 905 534
1 266 504 599 548 728 749 250 133 300 524 964 656 899 362 150 19 0 0 0 0 814 312 9 0 0 0 0 0 0 0 162 123 111 65 89 84 111 657 794 501 122 106
0 150 312 527 464 595 411 226 11 35 137 401 422 578 576 290 59 17 10 7 0 0 0 0 0 0 0 0 0 0 5 31 46 266 436 314 364 428 416 371 98 15 0
10 7 136 214 411 526 414 116 89 58 0 21 144 273 416 454 243 34 26 109 307 111 173 11 25 98 113 0 0 0 11 55 135 441 51 27 66 131 87 62 15 0 0
146 20 19 10 214 422 260 283 0 0 0 0 0 20 94 17 20 3 0 0 0 1 50 59 71 22 43 31 2 0 0 0 1 12 21 20 4 6 11 5 0 0 0
385 302 0 0 1 166 364 272 331 0 0 0 0 0 0 1 0 0 0 0 0 0 141 137 110 83 52 6 1 3 0 0 52 0 25 16 0 0 0 0 0 0 0
283 0 9 0 0 0 76 313 349 299 184 50 0 0 0 0 0 0 0 0 0 0 58 114 71 6 9 7 3 0 0 0 0 0 20 0 5 0 0 0 0 0 12
87 0 11 0 0 0 0 0 101 150 242 127 21 0 0 0 0 0 0 0 0 0 0 0 0 0 0 0 0 0 0 0 0 8 37 51 62 32 8 0 0 0 0
63 0 0 0 0 0 0 0 0 0 0 2 0 0 0 0 0 0 0 0 0 0 0 0 0 0 0 0 0 0 0 0 0 7 5 19 34 47 21 0 0 0 0
10 1 0 0 0 0 0 0 0 0 0 0 0 0 0 0 0 0 0 0 0 0 0 0 0 0 0 0 0 0 0 0 0 0 0 0 16 2 31 6 0 0 0
145 97 24 0 0 0 0 0 0 0 0 0 0 0 0 0 0 0 0 0 0 0 0 0 0 0 0 0 0 0 0 0 0 0 0 0 0 1 0 1 0 0 0
325 288 253 110 5 0 0 0 0 0 0 0 0 0 0 23 0 0 7 57 70 0 0 0 0 0 0 0 0 0 0 0 0 0 0 0 0 0 0 0 0 1 0
457 383 650 396 113 13 61 138 0 0 0 0 0 0 1 27 16 0 0 29 149 189 123 5 0 0 0 7 0 0 0 0 0 0 0 0 0 0 0 0 0 0 0
439 796 876 988 440 280 292 200 138 243 19 1 7 4 0 17 8 14 13 11 69 235 242 213 135 3 0 0 0 0 0 0 0 0 0 0 0 0 0 0 0 0 0
345 441 936 893 918 526 507 644 569 577 370 290 189 142 143 47 16 193 237 143 89 88 282 271 221 72 0 0 0 0 0 0 0 0 0 0 0 0 0 0 0 0 0
CIN
-29 -21 -6 -1 0 0 0 0 -2 -1 0 -8 -5 -1 -1 0 0 0 0 0 0 0 0 -10 -9 -26 -6 0 -8 -17 -13 -2 -35 0 -4 0 0 0 0 0 -12 0 0
-47 -11 -4 -1 0 0 0 0 0 -2 -5 0 -14 0 0 0 0 -1 -6 -4 0 0 0 -1 -19 -10 -7 0 0 0 -8 -7 -1 0 0 0 -1 -4 0 -3 0 -13 0
-47 -18 -1 0 0 0 -1 0 0 -1 0 0 0 0 -3 0 -2 -2 -12 -13 0 -6 -16 -36 -1 -18 0 -9 0 0 -6 -31 -2 -2 -3 -1 -2 -18 -8 -3 0 0 0
-62 -28 -2 -2 0 -2 -1 0 0 0 0 0 -29 -5 -1 -1 -8 -7 0 0 -1 -3 -7 -16 -25 -13 0 -6 -2 -6 -9 -8 -5 -6 -1 0 -1 0 -23 -1 -1 -2 -2
-69 -26 -6 -1 0 0 -1 -1 0 0 -6 -1 -2 -11 -1 -1 -9 -2 0 0 0 0 -2 -5 -8 -80 -16 -1 -15 -4 -3 -6 -3 -2 0 0 -2 -13 -5 -3 -5 -5 -34
-98 -18 -1 0 -1 0 -1 0 -1 0 -2 -1 -2 -1 0 -13 0 0 0 0 0 0 0 -23 -6 0 0 0 -13 -3 -1 -1 -2 -11 0 -3 0 0 0 0 0 0 -2
-87 -6 -5 -8 -4 -7 -1 0 0 -1 -2 -4 -2 -5 -1 0 0 0 0 -2 0 0 0 -1 0 -3 -4 -4 0 0 0 -8 -21 -3 -1 -1 0 0 0 -39 -5 -8 -5
-68 -10 -10 -11 -8 -4 0 0 0 -1 -1 0 0 -1 -1 0 0 0 0 -1 0 0 -1 0 -1 0 0 0 0 0 -6 0 0 -21 0 -57 0 0 -66 -3 -12 -4 -4
-57 -21 -24 -2 0 0 -1 0 0 0 0 0 0 0 0 0 0 0 0 0 0 -1 -5 -1 -8 0 -6 -2 -6 -3 0 0 0 0 -67 -42 -49 0 -31 -1 0 0 0
-70 -35 -23 0 0 0 0 0 0 0 0 -8 0 0 -2 -13 0 0 0 -2 0 0 0 -21 -6 -27 0 -1 0 -6 -3 -5 -3 -30 -40 -1 -3 -43 -31 -16 0 0 0
-108 -40 -33 -9 0 0 0 0 0 0 0 -2 -1 0 0 -8 -7 0 0 -14 0 -1 0 0 -5 0 0 0 -45 -5 -21 -13 -14 0 0 -1 0 -1 -3 -4 -7 -18 -3
-187 -56 -19 -11 -7 0 0 -1 -6 0 0 0 0 0 0 -5 0 0 0 -12 -26 -4 0 -1 0 0 0 0 -57 -14 -19 -8 0 0 0 0 0 0 -17 -2 -4 -1 -11
-14 -94 -32 -13 -11 -1 0 -28 -40 -7 0 -3 0 0 0 -11 -48 0 0 0 -3 -2 0 -1 0 0 0 0 0 0 0 -1 0 0 -1 -6 -15 -6 -2 0 -4 -77 -83
0 -173 -111 -44 -35 -7 -21 -54 -143 -117 -50 -10 -10 -2 -1 -2 -25 -50 -74 -7 0 0 0 0 0 0 0 0 0 0 0 -1 -1 0 0 0 0 0 -1 -11 -63 -129 0
-116 -162 -203 -157 -83 -38 -43 -104 -104 -95 0 -68 -51 -25 -7 -7 -28 -142 -133 -21 -2 -29 -7 -39 -69 -6 -4 0 0 0 -1 -2 -1 0 0 -9 -33 -36 -37 -65 -99 0 0
-203 -297 -267 -256 -175 -76 -102 -86 0 0 0 0 0 -17 -88 -45 -278 -186 0 0 0 -82 -80 -48 -25 -40 -20 -19 0 0 -1 0 -1 0 -2 -28 -21 -42 -57 -24 0 0 0
-155 -164 -12 0 -270 -170 -100 -121 -116 0 0 0 0 0 0 -12 0 0 0 0 0 0 -49 -27 -23 -18 -21 -2 -1 -1 0 0 -7 0 -8 -28 0 0 0 0 0 0 0
-181 0 -197 0 0 0 -145 -124 -113 -155 -214 -305 0 0 0 0 0 0 0 0 0 0 -107 -78 -79 -96 -63 -57 -28 0 0 0 0 0 -10 -3 -24 0 0 0 0 0 -35
-235 0 -47 0 0 0 0 0 -194 -183 -180 -247 -364 0 0 0 0 0 0 0 0 0 0 0 0 0 0 0 0 0 0 0 0 -42 -17 -9 -9 -28 -38 0 0 0 0
-177 0 0 0 0 0 0 0 0 0 0 -67 0 0 0 0 0 0 0 0 0 0 0 0 0 0 0 0 0 0 0 0 0 -15 -108 -64 -41 -34 -42 -4 0 0 0
-168 -155 0 0 0 0 0 0 0 0 0 0 0 0 0 0 0 0 0 0 0 0 0 0 0 0 0 0 0 0 0 0 0 0 0 -64 -111 -108 -68 -61 0 0 0
-89 -102 -171 0 0 0 0 0 0 0 0 0 0 0 0 0 0 0 0 0 0 0 0 0 0 0 0 0 0 0 0 0 0 0 0 0 0 -86 0 -47 0 0 0
-74 -83 -89 -113 -132 0 0 0 0 0 0 0 0 0 0 -246 0 0 -134 -195 -214 0 0 0 0 0 0 0 0 0 0 0 0 0 0 0 0 0 0 0 0 0 0
-74 -67 -43 -78 -80 -127 -78 -80 0 0 0 0 0 0 -34 -206 -191 0 0 -192 -151 -144 -178 -139 0 0 0 -120 0 0 0 0 0 0 0 0 0 0 0 0 0 0 0
-73 -55 -25 -32 -73 -63 -38 -48 -76 -50 -20 -10 -86 -59 0 -136 -201 -192 -176 -180 -149 -145 -166 -165 -175 -75 0 0 0 0 0 0 0 0 0 0 0 0 0 0 0 0 0
-171 -122 -44 -26 -48 -72 -45 -25 -33 -50 -46 -60 -77 -73 -74 -98 -111 -129 -150 -152 -149 -133 -118 -142 -164 -200 0 0 0 0 0 0 0 0 0 0 0 0 0 0 0 0 0
Wind_Speed
10 9 6 6 5 5 4 4 5 4 4 4 4 4 3 4 2 2 2 2 4 5 4 3 1 2 2 3 4 4 6 9 11 8 7 12 13 14 12 11 11 10 7
10 9 7 7 4 4 5 5 10 5 5 4 3 1 6 3 6 4 1 2 5 5 1 2 1 4 4 7 6 8 8 12 14 16 12 10 12 13 13 10 9 8 9
10 10 7 6 5 5 6 5 6 7 6 4 3 3 8 4 5 5 4 2 2 6 4 0 4 5 8 8 9 10 9 10 12 14 12 9 8 10 9 10 9 8 6
10 9 8 7 5 6 4 7 7 6 6 5 4 8 4 9 7 2 4 6 4 7 6 2 2 4 11 10 11 13 13 13 13 11 10 10 6 8 8 9 7 5 6
9 8 8 7 8 8 6 7 7 6 7 4 5 6 4 8 4 5 5 5 7 8 7 5 4 4 9 11 11 12 15 12 9 12 8 10 9 8 9 6 7 7 5
9 11 9 8 8 8 7 7 7 4 3 4 5 5 6 8 9 10 8 4 8 9 8 8 8 13 15 14 15 12 13 15 12 9 9 10 8 8 8 7 8 8 6
10 11 10 9 9 9 9 9 8 4 3 5 4 4 8 7 6 7 9 3 9 9 10 8 8 10 14 15 17 17 16 13 9 11 14 11 12 11 10 6 9 7 7
11 11 11 11 10 10 8 7 6 5 4 4 5 8 7 7 2 5 9 6 8 10 10 10 11 12 14 13 16 14 12 12 11 8 11 12 11 12 12 9 10 6 9
12 12 12 12 11 10 6 7 6 6 5 5 7 7 8 7 2 3 8 8 8 8 8 11 11 15 12 14 15 14 12 8 9 11 10 10 14 14 11 8 8 8 9
13 12 13 12 10 9 8 8 6 5 4 7 8 7 9 9 3 4 7 6 10 8 11 8 13 12 10 9 15 12 13 11 12 10 7 6 9 11 9 8 10 9 8
14 13 13 12 11 11 8 6 6 5 7 8 8 7 9 10 6 6 5 5 8 9 11 11 9 8 10 10 11 11 14 13 14 11 10 8 9 8 8 6 5 5 10
14 14 13 13 10 10 9 7 6 6 7 7 7 7 8 9 7 7 5 1 1 10 11 11 7 6 10 10 9 11 13 14 11 11 10 10 10 9 9 6 4 2 3
15 14 13 14 10 11 9 8 7 6 7 8 7 7 7 8 7 6 7 7 10 6 9 12 12 8 12 10 9 11 13 9 9 10 9 9 9 9 8 6 5 7 7
15 14 13 12 10 11 9 8 7 7 5 9 8 6 8 8 8 9 7 7 10 9 11 9 6 7 4 10 7 5 8 8 8 9 9 10 9 9 7 7 7 6 6
15 14 13 12 11 11 9 7 7 6 4 5 5 8 8 9 10 11 10 9 8 10 10 8 7 8 9 9 8 8 7 6 8 7 8 8 7 8 8 9 8 8 6
14 13 12 11 12 11 10 8 11 9 9 10 11 6 6 9 18 14 10 9 10 13 7 7 6 7 8 9 9 8 7 7 7 7 8 8 9 9 9 9 8 8 8
13 13 12 11 12 11 11 10 10 4 9 9 11 11 7 13 16 15 12 10 8 10 8 9 9 9 9 9 9 9 9 8 7 8 8 8 9 9 8 9 9 9 10
15 13 11 12 12 12 12 11 10 12 10 9 2 5 9 9 13 13 13 11 6 5 10 9 9 9 9 10 10 10 10 10 10 9 9 9 8 9 9 10 10 10 10
16 13 13 13 12 12 11 12 11 12 12 12 12 5 9 10 8 7 12 11 11 11 11 10 9 10 10 10 10 10 10 9 9 9 8 9 9 10 10 11 11 11 10
16 15 15 12 12 12 11 12 11 11 11 12 12 14 11 9 9 9 10 11 12 11 12 13 12 10 11 11 11 10 9 8 9 9 10 9 9 10 11 11 11 10 9
14 15 15 14 13 13 12 12 12 11 11 11 12 14 17 14 14 14 13 13 14 13 12 12 12 12 12 11 10 10 11 10 10 10 10 11 10 10 10 10 10 11 10
14 14 15 15 13 13 13 13 13 13 13 13 12 10 19 15 14 14 14 14 14 14 12 11 12 12 12 12 11 11 12 12 11 11 11 11 10 11 11 10 11 9 10
15 16 16 14 14 13 12 13 13 13 13 13 13 12 13 14 13 13 13 12 13 12 13 13 12 12 11 10 10 10 11 12 11 11 10 11 12 11 11 10 10 9 11
16 17 16 15 14 14 14 13 13 15 15 14 13 12 13 14 13 14 12 12 12 12 12 11 12 15 12 12 11 12 11 11 10 11 16 12 12 10 11 10 11 10 11
15 15 14 14 14 14 13 14 14 13 14 12 11 12 13 13 14 13 12 12 11 12 13 12 11 15 19 20 17 18 14 9 11 9 10 12 13 12 10 9 9 11 13
15 15 14 13 13 13 14 13 13 13 13 12 12 11 12 13 13 14 13 13 13 13 14 12 14 20 20 18 21 18 8 9 10 10 10 9 10 10 10 11 13 11 15
Wind_Direction
161 169 129 147 173 163 132 161 147 156 148 201 167 182 142 97 104 88 83 196 202 224 151 238 7 289 192 127 106 127 131 119 114 107 111 118 112 111 106 109 120 113 113
167 165 145 160 197 124 168 155 139 207 174 201 182 66 83 96 67 64 96 238 193 195 66 230 186 264 140 100 96 96 95 123 129 128 127 109 120 117 122 148 119 111 119
172 158 150 147 162 160 164 133 176 153 180 194 176 173 85 87 120 100 108 110 165 106 103 283 141 196 120 110 102 102 102 121 128 127 122 136 111 121 127 95 106 109 115
170 160 142 139 155 172 147 159 163 174 168 183 195 95 163 121 97 98 126 133 152 131 138 146 153 141 126 123 113 114 113 120 124 126 132 124 115 105 101 112 108 107 125
167 152 106 124 169 142 157 153 158 166 191 156 103 136 120 93 66 34 53 107 116 126 139 140 59 67 131 129 129 127 125 131 123 118 121 116 112 120 115 114 114 129 116
167 133 161 132 136 136 143 148 164 163 159 137 175 140 133 84 35 26 1 90 111 96 110 96 99 91 78 80 97 108 135 137 133 121 129 128 108 115 119 136 130 140 137
170 140 136 140 137 146 156 163 156 140 161 148 133 93 97 100 39 6 347 32 109 112 107 96 103 107 107 101 90 93 85 87 101 132 129 130 126 136 145 156 149 160 148
165 151 142 149 146 152 157 141 149 128 144 135 143 146 129 102 89 335 319 102 109 120 123 132 121 120 118 120 116 106 99 111 113 118 128 135 146 154 165 168 172 150 124
162 154 153 147 152 152 143 151 155 138 151 153 149 144 135 121 150 314 310 95 111 109 130 128 124 119 117 121 124 110 102 99 91 106 124 157 154 179 203 158 167 165 156
163 162 153 153 149 147 137 148 152 176 158 104 120 141 116 116 115 356 332 97 119 106 106 103 65 106 97 146 123 122 127 140 141 141 156 153 178 179 217 217 169 182 152
162 165 155 150 155 130 136 145 159 196 104 107 117 109 121 116 114 27 14 136 131 128 116 116 103 70 86 95 145 143 138 148 151 164 170 178 174 174 195 207 199 160 172
166 168 157 150 173 144 146 148 161 125 131 125 129 131 125 117 105 84 59 175 16 124 124 116 103 72 90 103 138 132 139 150 163 164 166 170 170 180 187 199 123 176 351
169 168 166 163 185 149 160 162 153 186 149 154 153 151 132 128 128 94 81 58 42 113 115 105 126 126 106 92 109 129 158 172 161 164 165 169 174 182 154 142 124 105 91
171 171 170 174 187 160 175 176 177 181 181 163 150 151 149 155 144 146 141 127 117 99 119 132 127 120 96 114 142 166 212 164 172 175 169 168 164 143 166 173 164 160 132
174 175 176 183 190 169 200 178 201 180 172 184 153 154 159 157 153 151 161 160 166 147 141 149 166 169 155 161 165 188 178 169 195 169 159 150 162 176 178 175 181 173 168
177 180 183 185 181 184 192 162 50 51 83 65 67 49 115 109 129 138 130 136 126 141 161 174 182 186 183 176 180 185 178 191 203 181 174 178 184 186 179 183 188 189 183
187 181 183 202 177 199 191 192 178 93 65 56 60 68 40 137 136 132 118 107 133 160 216 191 192 196 200 195 200 198 197 191 213 205 197 194 200 199 179 192 199 199 208
185 186 199 200 189 198 194 198 190 178 186 188 215 93 112 132 139 135 135 142 163 215 220 211 206 202 208 209 206 209 207 201 202 219 208 205 207 206 198 212 207 209 213
183 193 204 187 206 195 196 201 199 192 185 191 177 146 105 88 91 119 165 196 195 202 212 231 221 212 210 214 216 217 217 213 205 205 221 217 210 214 215 209 223 210 203
189 201 188 205 201 194 206 200 202 205 192 194 188 181 164 156 177 184 199 218 219 210 213 218 233 229 215 216 213 216 216 211 212 210 216 222 217 215 223 220 220 220 204
194 191 194 213 197 198 205 202 205 203 201 197 199 184 167 191 196 198 197 210 221 230 224 218 220 225 231 227 220 217 220 220 212 216 218 219 222 220 220 230 217 224 186
198 196 192 208 208 201 200 207 206 209 206 205 203 182 156 188 204 208 207 204 215 224 233 232 230 226 222 226 223 222 220 219 220 216 218 221 226 225 226 221 228 209 180
211 204 189 204 215 202 190 205 208 211 212 210 209 188 182 197 209 211 211 208 205 213 219 229 232 231 232 228 224 225 224 225 223 217 219 217 221 226 218 221 223 204 178
210 215 206 194 211 210 204 200 211 209 214 214 210 216 185 201 211 221 225 216 210 211 210 222 222 235 231 229 226 223 225 222 221 222 223 222 222 223 227 219 216 195 168
218 219 218 196 201 215 210 206 207 216 207 222 219 209 222 200 204 216 215 227 226 212 214 211 222 226 231 235 229 230 228 202 223 231 228 220 226 231 228 217 209 167 148
231 236 231 210 193 206 216 206 207 203 217 207 215 224 215 219 220 202 206 217 225 226 213 213 215 224 228 227 233 235 212 178 189 208 235 247 225 222 217 199 189 148 145